Tracking 25711 objects as of 22-May-2022
HD Live streaming from Space Station
objects crossing your sky now

FREGAT DEB

Track FREGAT DEB now!
10-day predictions


NORAD ID: 45614
Int'l Code: 2011-037H
Perigee: 638.7 km
Apogee: 3,149.1 km
Inclination: 51.3 °
Period: 124.6 minutes
Semi major axis: 8264 km
RCS: Unknown
Launch date: July 18, 2011
Source: Commonwealth of Independent States (former USSR) (CIS)
Launch site: TYURATAM MISSILE AND SPACE COMPLEX (TTMTR)

Note: This is SATELLITE DEBRIS
aabbcc
Your satellite tracking list
Your tracking list is empty




NASA's NSSDC Master Catalog

Two Line Element Set (TLE):
1 45614U 11037H   22142.51067292  .00019289  00000-0  18669-1 0  9995
2 45614  51.2725 329.2681 1518747  25.5199 341.3296 11.55434612 84865
Source of the keplerian elements: AFSPC